Frenchville, ME

10:30 PM EDT on May 26, 2017 (GMT -0400)
Northern Aroostook Regional

Weather History for KFVE - July, 2013

Change the Weather History Date:

Sunday, July 14, 2013

  Actual Average Record
Temperature  
Mean Temperature 74 °F 65 °F  
Max Temperature 89 °F 74 °F 89 °F (2013)
Min Temperature 59 °F 55 °F 45 °F (2011)
Degree Days  
Heating Degree Days 0    
Month to date heating degree days 13  
Since 1 July heating degree days 13  
Cooling Degree Days 9    
Month to date cooling degree days 53  
Year to date cooling degree days 78  
Growing Degree Days 24 (Base 50)    
Moisture  
Dew Point 55 °F    
Average Humidity 52    
Maximum Humidity 78    
Minimum Humidity 27    
Precipitation  
Precipitation 0.00 in 0.14 in 0.79 in (2016)
Month to date precipitation T 2.21  
Year to date precipitation 15.65 15.96  
Sea Level Pressure  
Sea Level Pressure 30.18 in    
Wind  
Wind Speed 5 mph (West)    
Max Wind Speed 13 mph    
Max Gust Speed 20 mph    
Visibility 10 miles    
Events      
T = Trace of Precipitation, MM = Missing Value Source: NWS Daily Summary

Daily Weather History Graph

Daily Weather History Graph

Search for Another Location

Airport or City:

Trip Planner

Search our weather history database for the weather conditions in past years. The results will help you decide how hot, cold, wet, or windy it might be!

Date:

Astronomy

Jul. 14, 2013 Rise Set
Actual Time 4:51 AM EDT 8:26 PM EDT
Civil Twilight 4:12 AM EDT 9:04 PM EDT
Nautical Twilight 3:21 AM EDT 9:55 PM EDT
Astronomical Twilight 2:11 AM EDT 11:04 PM EDT
Moon 11:34 AM EDT (7/14) 11:05 PM EDT (7/14)
Length of Visible Light 16h 51m
Length of Day
15h 34m
Waxing Crescent, 35% of the Moon is Illuminated
Jul 14
Waxing Crescent
Jul 15
First Quarter
Jul 22
Full
Jul 29
Last Quarter
Aug 6
New

Hourly Weather History & Observations

Time (EDT) Temp. Heat Index Dew Point Humidity Pressure Visibility Wind Dir Wind Speed Gust Speed Precip Events Conditions
12:53 AM 66.9 °F - 50.0 °F 54% 30.21 in 10.0 mi Calm Calm - N/A   Clear
1:53 AM 64.9 °F - 51.1 °F 61% 30.20 in 10.0 mi SW 3.5 mph - N/A   Clear
2:53 AM 62.1 °F - 51.1 °F 67% 30.21 in 10.0 mi Calm Calm - N/A   Clear
3:53 AM 63.0 °F - 53.1 °F 70% 30.21 in 10.0 mi Calm Calm - N/A   Clear
4:53 AM 60.1 °F - 53.1 °F 78% 30.22 in 10.0 mi Calm Calm - N/A   Clear
5:53 AM 61.0 °F - 53.1 °F 75% 30.22 in 10.0 mi Calm Calm - N/A   Clear
6:53 AM 64.0 °F - 55.9 °F 75% 30.23 in 10.0 mi Calm Calm - N/A   Clear
7:53 AM 69.1 °F - 57.0 °F 65% 30.23 in 10.0 mi WSW 4.6 mph - N/A   Clear
8:53 AM 71.1 °F - 57.9 °F 63% 30.23 in 10.0 mi West 4.6 mph - N/A   Clear
9:53 AM 75.0 °F - 59.0 °F 57% 30.22 in 10.0 mi West 4.6 mph - N/A   Clear
10:53 AM 80.1 °F 80.7 °F 59.0 °F 48% 30.22 in 10.0 mi WSW 6.9 mph - N/A   Clear
11:53 AM 82.9 °F 82.6 °F 57.9 °F 42% 30.20 in 10.0 mi Variable 4.6 mph - N/A   Clear
12:53 PM 86.0 °F 84.9 °F 57.0 °F 37% 30.19 in 10.0 mi Variable 3.5 mph - N/A   Clear
1:53 PM 88.0 °F 85.9 °F 54.0 °F 31% 30.18 in 10.0 mi West 11.5 mph 16.1 mph N/A   Clear
2:53 PM 89.1 °F 87.1 °F 55.0 °F 31% 30.16 in 10.0 mi Variable 6.9 mph - N/A   Clear
3:53 PM 89.1 °F - 51.1 °F 27% 30.14 in 10.0 mi Variable 3.5 mph - N/A   Clear
4:53 PM 89.1 °F - 52.0 °F 28% 30.13 in 10.0 mi WSW 5.8 mph - N/A   Clear
5:53 PM 87.1 °F 85.3 °F 55.0 °F 33% 30.13 in 10.0 mi WNW 6.9 mph - N/A   Clear
6:53 PM 84.9 °F 83.7 °F 55.9 °F 37% 30.12 in 10.0 mi WNW 5.8 mph - N/A   Clear
7:53 PM 82.0 °F 81.7 °F 57.0 °F 42% 30.13 in 10.0 mi NW 4.6 mph - N/A   Clear
8:53 PM 77.0 °F - 57.0 °F 50% 30.14 in 10.0 mi West 6.9 mph - N/A   Clear
9:53 PM 75.0 °F - 57.0 °F 53% 30.13 in 10.0 mi WNW 5.8 mph - N/A   Clear
10:53 PM 73.0 °F - 57.9 °F 59% 30.13 in 10.0 mi West 8.1 mph - N/A   Clear
11:53 PM 71.1 °F - 57.9 °F 63% 30.13 in 10.0 mi NW 6.9 mph - N/A   Clear